Theta_e
307 309 312 316 313 314 316 317 314 320 321 326 326 326 325 323 325 326 322 320 317 315 314 314 314 316 324 327 329 331 334 332 330 330 328 326 326 329 330 331 330 322 318 324 329 332 333 331 327
308 313 315 313 312 314 313 312 319 320 323 325 323 323 323 324 322 322 321 319 316 315 314 312 310 310 312 319 326 330 332 333 331 330 329 327 325 328 330 331 331 322 330 331 330 331 332 328 325
311 315 314 307 307 312 313 312 317 319 324 325 322 321 321 321 321 321 320 317 315 313 311 308 307 307 307 309 314 324 330 332 332 330 329 328 326 326 329 331 331 329 331 332 331 331 329 326 324
315 315 313 311 311 311 312 313 313 316 315 318 321 319 319 320 321 319 317 315 313 309 306 306 306 306 306 306 308 312 323 329 330 331 330 328 328 326 327 330 331 331 331 332 331 330 327 325 323
315 313 311 313 313 312 310 312 313 314 314 314 315 318 317 317 317 316 315 314 311 306 305 305 305 305 305 306 306 307 312 324 328 330 330 330 328 327 326 330 332 328 331 332 330 328 326 324 320
312 309 311 312 312 312 311 312 313 313 314 314 313 316 316 315 313 313 313 311 307 305 305 305 305 305 306 306 306 307 307 314 323 327 328 329 329 328 327 329 331 329 333 328 326 324 320 320 322
310 307 308 309 312 313 312 311 312 312 312 312 313 311 312 311 310 311 310 308 305 305 304 304 304 304 305 306 307 307 308 309 320 322 327 328 328 328 326 325 329 331 331 327 325 324 321 321 322
312 306 311 310 312 314 310 311 312 312 311 311 311 309 308 310 310 310 310 307 305 305 305 305 304 304 303 304 306 307 308 309 312 319 322 325 325 327 327 323 323 323 328 328 326 324 325 323 323
312 308 309 311 311 312 308 310 311 310 310 310 310 309 309 310 310 310 310 306 305 305 305 305 305 304 303 303 303 305 308 309 310 315 318 324 325 325 327 325 324 323 326 327 326 325 325 323 323
309 307 309 306 308 308 307 307 307 308 307 308 308 309 309 309 309 309 308 306 305 305 305 305 305 304 304 303 302 302 303 308 309 314 317 320 324 324 325 325 325 324 323 325 328 325 325 323 322
306 308 307 307 307 307 307 307 308 307 306 307 308 308 308 308 308 308 307 306 306 306 305 305 305 304 302 302 303 302 301 302 308 311 315 320 323 322 323 322 322 322 323 324 323 323 323 324 322
308 306 307 307 308 307 307 307 306 307 308 308 308 308 308 308 307 308 306 306 306 306 306 306 305 304 302 300 300 299 301 300 304 311 313 317 319 321 322 321 321 322 323 325 324 323 321 323 322
307 307 307 307 307 307 306 306 305 306 306 306 307 307 308 308 307 307 306 306 306 306 306 305 305 305 303 300 298 297 297 298 299 308 312 314 316 318 322 322 322 323 322 322 323 322 321 322 320
306 307 306 306 307 306 306 305 306 305 307 307 306 307 307 307 307 307 306 306 307 307 306 305 305 304 303 300 299 297 296 296 297 301 310 313 315 317 319 319 319 320 321 322 320 321 321 317 318
306 306 305 306 306 305 305 304 304 307 306 307 307 308 308 308 308 308 307 306 307 307 306 305 304 304 301 299 298 296 300 299 296 298 305 311 314 316 318 319 319 319 320 320 320 319 320 319 318
305 303 305 304 305 305 305 304 302 305 306 307 308 308 308 307 307 307 306 306 305 306 305 304 304 303 301 299 297 296 301 302 299 297 301 309 312 314 316 317 319 319 321 319 322 322 322 316 318
303 304 304 304 303 304 305 304 303 304 305 305 306 306 306 306 307 306 305 303 303 304 304 304 303 302 300 298 295 297 300 302 301 298 302 307 312 313 314 316 318 318 321 319 320 322 322 317 315
305 304 302 303 302 304 304 304 303 305 304 304 304 305 306 306 307 305 304 303 303 303 303 303 302 301 299 296 295 298 301 302 302 300 305 306 311 312 313 315 317 316 318 320 320 320 319 318 316
303 304 304 302 303 302 301 301 302 301 301 301 303 305 306 306 306 305 304 303 303 302 302 302 301 300 298 295 298 300 302 302 301 301 305 305 310 311 313 314 316 318 320 320 318 320 319 318 318
305 305 303 301 301 302 301 303 301 300 302 303 304 305 306 307 306 305 304 303 302 302 302 301 301 299 295 297 300 302 302 302 302 304 306 307 309 311 313 313 314 317 318 319 318 318 319 319 319
305 305 304 303 302 301 299 303 300 302 302 304 305 306 306 306 306 305 304 303 302 301 301 301 300 297 295 299 301 301 302 302 304 306 307 308 309 310 314 315 313 316 317 319 318 319 319 319 320
303 303 303 304 303 304 299 307 302 300 301 303 303 305 306 306 305 305 304 303 302 301 301 300 299 295 295 301 301 302 302 304 305 308 308 310 311 312 314 314 315 316 318 317 320 319 320 320 320
303 303 304 304 305 303 302 302 303 298 305 303 301 303 305 305 305 304 303 303 301 300 300 299 297 294 296 301 301 302 302 303 305 307 308 310 313 313 315 314 314 316 317 319 318 319 319 320 320
302 304 302 301 302 302 303 300 303 300 304 303 301 302 304 305 304 303 303 302 301 299 299 298 295 294 297 301 302 302 302 303 304 305 308 311 313 313 314 314 315 316 317 318 319 319 320 320 321
303 301 305 310 306 307 301 301 305 302 299 300 300 302 303 304 303 303 302 301 300 298 298 297 294 295 299 302 302 302 302 303 303 305 308 311 313 313 314 314 317 316 317 318 320 320 320 321 320
302 301 307 307 306 304 300 304 306 300 300 301 303 303 303 304 303 303 302 300 299 298 297 296 294 297 301 302 302 303 303 304 304 305 308 311 314 313 314 314 318 319 319 319 319 320 320 319 320
303 304 300 298 291 301 302 301 301 300 300 301 302 303 302 303 303 302 301 300 298 297 297 295 295 300 301 302 303 302 303 304 305 306 308 311 313 313 313 315 318 320 318 319 320 320 321 320 319
302 300 303 300 305 305 305 302 306 304 303 302 301 302 302 303 303 302 301 300 298 297 297 295 297 301 301 302 302 302 302 304 305 306 308 310 313 313 314 316 318 318 319 319 320 321 319 319 320
300 300 300 301 301 304 302 311 301 302 301 301 300 301 303 304 303 302 301 300 298 297 297 296 300 301 301 301 300 301 301 302 304 305 306 311 313 314 316 317 319 321 319 321 321 319 319 320 320
300 301 301 306 302 296 300 306 302 299 300 299 300 303 303 304 303 303 302 301 299 297 298 298 301 301 301 299 300 300 301 302 303 305 306 310 313 315 316 317 319 318 320 320 320 320 320 322 322
Wind_Speed
1 4 6 4 3 4 1 3 0 2 2 1 2 2 1 1 2 2 1 3 6 9 10 11 11 12 10 9 6 10 11 12 12 13 13 12 12 13 13 12 11 10 13 14 14 17 19 14 10
3 6 3 3 4 2 3 2 4 1 2 3 0 1 0 2 3 4 4 5 8 10 12 14 14 14 13 13 11 9 9 13 15 15 15 14 14 14 14 13 12 12 14 16 16 18 17 13 9
5 3 2 4 3 4 4 3 3 2 3 1 1 2 1 2 2 3 3 8 10 13 15 16 17 17 16 15 15 14 11 8 15 17 16 17 16 15 15 14 15 16 16 18 19 18 15 13 10
3 2 5 4 3 3 3 2 4 4 3 2 1 4 4 4 3 3 8 10 13 17 19 19 18 18 17 16 16 16 14 12 11 17 19 15 17 17 16 16 17 19 18 20 17 15 14 12 10
2 3 3 2 3 3 3 2 4 4 3 1 1 2 3 5 7 7 8 10 14 18 19 18 17 17 17 16 16 17 17 11 11 12 17 19 18 19 17 18 17 21 22 21 14 13 15 13 13
2 3 3 2 3 2 3 4 3 2 2 1 2 3 4 2 5 6 8 11 15 15 15 16 16 16 16 16 16 16 16 15 12 14 14 19 19 19 17 18 18 20 23 19 17 17 16 17 17
4 3 2 2 3 3 3 6 4 4 3 5 4 2 3 3 4 6 8 13 15 15 14 14 15 15 16 16 16 16 16 16 15 13 14 14 20 24 22 20 15 18 23 19 17 19 18 21 18
3 5 2 3 3 4 4 5 3 5 4 5 5 5 4 4 6 7 11 15 15 15 14 14 15 15 15 16 16 15 15 16 16 15 16 16 16 19 26 21 17 16 20 24 22 22 21 22 20
3 3 1 4 5 2 4 3 4 3 4 6 8 10 8 9 8 9 12 14 14 14 15 15 15 16 15 16 16 17 16 16 15 17 18 17 16 17 24 25 18 20 20 18 21 25 25 21 18
3 3 5 4 3 2 4 4 3 2 5 8 13 16 13 10 9 10 12 12 11 11 12 13 15 18 17 16 15 17 17 16 15 14 16 18 14 13 16 23 25 19 18 17 25 28 22 20 18
2 3 2 2 2 1 2 3 4 2 5 16 11 7 8 8 9 10 11 11 11 10 10 12 15 18 20 20 18 17 18 17 15 15 15 12 19 15 14 12 14 14 19 23 21 19 18 18 19
2 1 2 2 2 2 2 4 5 12 11 5 7 8 10 9 9 9 10 10 11 11 13 15 18 20 21 20 19 17 17 18 16 15 14 19 17 19 19 13 10 8 14 23 23 19 23 20 19
2 3 2 2 2 4 6 8 8 20 22 18 14 14 11 10 8 9 11 12 14 15 16 16 18 19 21 21 19 19 18 18 17 14 15 15 17 23 18 19 13 8 16 12 19 21 21 22 18
3 3 2 3 3 4 4 4 3 3 4 5 13 11 11 11 9 10 11 13 16 18 18 18 18 19 21 20 20 19 18 17 16 13 14 15 17 20 14 19 19 20 13 20 25 16 19 20 20
4 1 3 3 2 2 5 4 7 13 10 7 7 8 11 11 12 12 12 14 16 18 17 17 17 19 21 21 20 19 18 17 16 12 14 14 13 17 18 16 19 23 21 18 20 25 23 28 25
2 3 2 1 1 2 2 8 3 1 6 9 11 11 12 12 14 13 13 13 12 13 13 15 16 19 21 22 20 19 17 16 15 12 12 12 12 11 15 14 17 12 23 22 27 34 30 32 26
5 2 2 5 4 3 1 7 5 4 5 14 22 19 18 18 13 9 9 9 9 9 10 13 16 19 21 20 18 17 15 15 13 10 9 11 9 9 9 12 14 24 23 31 14 32 30 28 30
3 3 3 5 3 2 5 17 14 26 23 29 25 19 12 10 7 6 7 8 9 9 10 12 16 19 20 19 17 15 14 14 11 8 7 9 9 11 14 10 11 16 19 26 21 14 22 29 32
2 0 3 4 1 4 6 10 19 18 13 17 17 14 9 8 6 6 7 9 10 10 11 13 15 18 18 17 16 12 11 9 8 6 7 8 10 10 14 12 10 21 17 21 22 15 22 25 30
1 1 4 4 1 2 6 18 8 4 3 3 0 3 3 6 5 6 7 9 10 11 12 13 16 17 16 16 14 14 11 5 2 1 1 6 9 9 10 13 11 16 17 25 20 20 22 23 28
2 3 2 4 6 1 7 6 5 2 3 2 1 1 2 5 6 7 8 10 11 12 12 13 15 15 13 13 13 10 9 2 1 2 2 5 10 9 7 10 17 14 22 16 23 26 30 27 24
3 1 1 2 4 3 5 4 4 4 6 0 3 3 5 6 7 7 8 10 11 12 11 13 14 13 11 11 10 8 5 1 2 2 2 4 5 4 6 10 14 18 24 26 27 24 25 29 29
1 1 1 1 1 2 5 2 7 4 2 1 2 4 4 0 4 6 8 10 10 11 11 12 13 11 10 9 8 7 4 1 0 1 2 2 2 5 4 9 13 18 25 29 31 25 23 27 25
4 2 3 3 2 3 2 2 5 2 3 2 3 2 2 1 3 5 7 9 9 10 11 11 12 10 9 9 8 6 2 2 3 2 3 1 2 2 2 8 15 19 22 30 29 26 24 21 22
1 2 3 5 4 3 1 2 8 5 5 4 6 7 1 2 3 5 7 8 9 9 10 10 10 9 8 8 6 5 4 5 5 4 4 1 4 2 3 6 8 19 24 26 26 26 20 23 24
4 3 4 5 1 5 1 5 4 5 4 7 11 10 5 4 3 5 5 6 8 8 9 9 8 6 7 8 7 5 3 3 6 3 3 2 5 5 6 9 8 17 24 24 24 23 25 21 29
3 2 2 7 1 3 3 7 8 4 8 9 15 11 7 5 5 4 5 6 6 7 8 8 6 5 5 7 7 6 3 1 3 3 4 3 2 1 5 8 10 17 21 23 25 20 21 22 22
1 4 3 3 1 3 5 6 5 2 7 4 5 6 4 4 5 5 5 5 5 6 7 7 5 4 5 6 6 6 5 2 1 1 3 4 5 2 6 7 13 21 21 21 21 15 16 21 19
1 0 3 3 3 4 1 6 6 6 5 6 6 4 5 6 6 7 6 5 4 4 5 5 4 4 6 7 7 6 5 4 4 2 4 6 6 4 8 10 11 18 15 18 22 15 16 18 18
2 3 4 4 4 1 3 7 2 7 5 5 10 10 8 10 10 9 8 7 5 3 4 3 3 4 5 6 8 7 5 3 4 4 6 7 7 10 11 12 17 16 17 20 20 19 14 14 17
Wind_Direction
308 133 142 129 68 67 238 237 101 177 159 246 174 174 173 194 199 245 35 350 342 337 337 339 336 329 317 311 300 284 292 271 257 250 246 233 233 232 227 225 229 218 198 177 175 166 167 174 172
145 130 115 104 92 83 263 227 213 159 126 123 134 148 317 260 249 264 275 327 332 330 330 329 326 321 319 310 298 274 274 275 256 246 249 242 231 230 229 228 218 201 191 187 177 181 179 177 180
139 123 68 87 103 181 211 211 181 113 144 184 35 353 241 224 229 248 275 320 327 329 329 326 321 316 312 307 302 293 283 295 258 253 245 243 235 232 228 228 215 198 201 190 179 186 184 185 183
147 117 65 85 221 238 210 204 178 148 124 81 60 293 280 256 266 250 308 324 332 332 331 328 326 321 314 307 299 296 292 279 284 260 251 245 240 229 232 227 218 204 197 187 188 202 194 183 184
123 77 57 61 259 249 239 235 183 160 136 123 32 280 258 268 278 289 309 324 330 330 329 329 329 325 320 313 306 296 293 293 272 266 258 247 238 236 229 226 220 212 208 185 193 225 203 182 177
58 75 62 235 243 259 260 203 162 178 178 219 250 264 259 262 309 307 315 324 327 330 333 334 334 328 321 315 309 302 291 281 271 274 267 254 233 230 230 232 218 215 207 204 201 232 192 179 177
107 80 221 219 252 297 219 173 186 189 183 234 200 202 242 278 305 308 324 330 329 334 337 334 331 328 325 321 314 308 300 290 270 260 274 260 251 235 225 229 229 229 219 215 206 207 183 177 173
106 92 119 239 217 259 155 167 185 194 234 196 204 217 223 253 310 312 326 327 327 329 329 332 334 330 323 316 312 305 298 293 282 265 268 269 260 235 211 216 232 232 249 216 215 197 181 177 176
132 65 226 233 178 223 159 179 205 225 228 219 222 238 255 282 294 306 311 317 319 322 324 330 333 332 327 318 312 306 301 295 289 265 264 259 257 253 233 224 237 230 239 238 206 189 183 181 182
100 129 219 198 191 259 190 200 204 237 235 248 244 244 253 265 278 290 300 306 305 310 317 324 331 329 325 320 313 304 299 291 284 275 256 245 259 253 254 235 245 248 245 238 205 183 179 183 185
110 202 180 223 215 209 246 269 230 208 260 241 238 235 235 256 272 283 293 294 297 309 323 324 327 332 326 319 313 305 301 294 282 275 248 263 246 241 246 248 242 235 232 218 218 188 184 191 188
141 136 160 191 201 220 230 283 272 225 243 267 238 258 260 261 274 288 290 284 290 301 313 318 321 322 326 322 315 308 296 295 286 273 264 254 244 241 230 225 221 213 228 186 190 184 180 195 197
118 173 200 207 224 249 267 254 252 264 271 255 259 260 262 270 286 294 294 288 285 289 294 299 305 314 321 320 316 311 302 293 291 277 263 260 248 248 236 219 201 189 192 203 186 187 185 197 194
152 159 190 230 230 267 274 256 327 214 6 224 245 259 257 266 285 297 297 285 282 287 285 285 297 308 317 318 316 312 306 295 289 276 261 259 250 244 243 237 234 232 226 220 229 227 201 196 183
110 338 305 230 222 261 312 264 235 262 256 266 263 265 265 272 276 291 293 287 283 285 274 280 293 309 318 320 318 314 307 298 289 280 259 251 248 248 248 242 229 234 234 235 208 210 204 191 180
46 62 348 301 336 304 328 273 244 240 231 257 269 267 275 282 282 280 288 292 291 284 277 282 298 311 317 320 318 314 311 303 292 281 261 250 246 226 232 244 241 244 231 222 207 201 200 202 188
11 267 261 318 25 307 193 273 263 223 235 282 291 273 285 281 284 278 295 306 305 296 286 289 303 309 315 318 316 313 313 307 295 283 252 242 228 239 239 244 237 225 225 220 235 189 205 202 176
263 274 252 257 318 313 256 265 267 274 275 276 277 276 270 293 276 282 306 319 319 313 295 299 304 312 315 318 319 317 314 305 294 280 248 246 241 231 228 237 227 213 226 200 199 171 204 184 178
101 180 273 265 6 310 258 276 283 291 276 271 268 257 262 261 272 299 313 319 318 310 300 301 306 311 320 326 324 324 318 301 283 267 245 240 243 241 225 234 226 209 211 200 184 168 184 185 174
128 273 287 281 52 332 317 294 288 311 310 308 276 185 218 241 266 300 310 315 317 308 300 304 311 319 328 333 335 336 336 329 273 192 187 246 250 241 239 234 220 218 208 213 178 190 185 187 179
222 218 241 238 323 271 305 295 351 10 336 324 53 154 227 251 277 298 308 311 316 310 303 309 317 323 331 339 342 346 341 345 114 150 212 263 257 252 256 259 219 225 205 202 197 200 195 184 184
266 146 123 339 18 287 3 278 322 338 314 305 11 292 261 259 283 293 303 305 315 308 307 313 318 326 337 343 347 1 3 128 146 110 228 255 285 261 246 263 220 212 197 201 198 201 199 193 189
283 32 34 14 95 345 355 68 270 346 325 108 21 55 64 187 285 290 297 309 315 313 312 317 319 325 341 346 358 7 359 315 312 206 321 296 323 264 261 290 242 217 205 198 206 210 206 208 195
143 86 40 45 53 31 325 97 287 228 211 290 257 16 90 196 280 293 300 310 317 316 313 321 317 329 342 353 1 6 348 267 315 316 21 60 211 40 301 300 234 218 212 199 218 214 211 212 214
143 65 335 352 8 221 37 8 248 250 229 211 272 283 246 234 268 287 299 306 316 320 317 320 319 336 342 352 6 356 343 325 327 336 358 23 182 258 268 1 207 213 201 196 212 211 209 210 209
190 181 155 216 266 277 86 236 246 217 257 260 265 265 257 236 251 288 303 311 322 325 320 321 326 334 344 353 357 3 14 334 318 329 357 36 152 259 354 3 174 180 183 194 208 208 214 232 204
190 195 131 103 41 35 259 282 292 258 272 256 257 263 269 246 250 277 306 313 328 327 323 325 329 340 350 350 353 356 356 351 330 342 37 56 188 265 4 3 168 177 191 195 187 195 201 197 193
223 143 75 5 89 294 290 284 244 235 223 247 262 263 289 278 253 263 296 309 324 329 328 325 340 346 352 347 354 356 4 58 306 332 50 75 111 49 27 59 173 175 182 187 188 192 189 191 197
140 355 56 117 118 174 267 271 213 227 217 227 263 288 310 304 285 266 278 292 304 333 328 332 340 350 354 7 25 17 1 42 134 135 81 86 98 67 55 75 138 179 181 184 181 185 186 204 210
282 204 170 126 242 56 140 275 267 248 265 271 280 292 307 312 298 271 264 268 283 316 330 333 345 0 7 26 18 29 9 52 103 116 97 85 79 65 68 86 109 172 159 174 174 173 178 179 180